Tracking 23758 objects as of 27-Oct-2021
HD Live streaming from Space Station
objects crossing your sky now

IRIDIUM 33 DEB

Track IRIDIUM 33 DEB now!
10-day predictions


NORAD ID: 35624
Int'l Code: 1997-051QW
Perigee: 622.1 km
Apogee: 666.3 km
Inclination: 86.4 °
Period: 97.5 minutes
Semi major axis: 7015 km
RCS: 0.0072 m2 (small)
Launch date: September 14, 1997
Source: United States (US)
Launch site: TYURATAM MISSILE AND SPACE COMPLEX (TTMTR)

Note: This is SATELLITE DEBRIS
aabbcc
Your satellite tracking list
Your tracking list is empty




NASA's NSSDC Master Catalog

Two Line Element Set (TLE):
1 35624U 97051QW  21299.38891851  .00013688  00000-0  18969-2 0  9999
2 35624  86.3510 288.1699 0031508 173.9671 186.1935 14.77548395660940
Source of the keplerian elements: AFSPC